Weather History for Fort Meade, MD

Change the Weather History Date:

Monday, June 24, 2013

  Actual Average (KBWI) Record (KBWI)
Temperature  
Mean Temperature 76 °F 75 °F  
Max Temperature 89 °F 86 °F 100 °F (2010)
Min Temperature 64 °F 64 °F 50 °F (1972)
Degree Days  
Heating Degree Days 0 0  
Month to date heating degree days 13  
Since 1 June heating degree days 13  
Since 1 July heating degree days 4762  
Cooling Degree Days 12 10  
Month to date cooling degree days 175  
Year to date cooling degree days 259  
Since 1 June cooling degree days 175  
Growing Degree Days 26 (Base 50)    
Moisture  
Dew Point 67 °F    
Average Humidity 80    
Maximum Humidity 100    
Minimum Humidity 43    
Precipitation  
Precipitation 0.00 in 0.11 in 1.36 in (1920)
Month to date precipitation 2.80  
Year to date precipitation 19.83  
Snow  
Snow 0.00 in 0.00 in - ()
Month to date snowfall 0.0  
Since 1 July snowfall 20.1  
Snow Depth -    
Sea Level Pressure  
Sea Level Pressure 30.11 in    
Wind  
Wind Speed 2 mph (SW)    
Max Wind Speed 10 mph    
Max Gust Speed -    
Visibility 8 miles    
Events      
T = Trace of Precipitation, MM = Missing Value Source: NWS Daily Summary

Daily Weather History Graph

Daily Weather History Graph

Search for Another Location

Airport:

Trip Planner

Search our weather history database for the weather conditions in past years. The results will help you decide how hot, cold, wet, or windy it might be!

Date:

Astronomy

Jun. 24, 2013 Rise Set
Actual Time 5:42 AM EDT 8:36 PM EDT
Civil Twilight 5:09 AM EDT 9:09 PM EDT
Nautical Twilight 4:29 AM EDT 9:49 PM EDT
Astronomical Twilight 3:42 AM EDT 10:36 PM EDT
Moon 9:38 PM EDT (6/24) 7:06 AM EDT (6/24)
Length of Visible Light 15h 59m
Length of Day
14h 54m
Full, 98% of the Moon is Illuminated
Jun 24
Full
Jun 30
Last Quarter
Jul 8
New
Jul 15
First Quarter
Jul 22
Full

Hourly Weather History & Observations

Time (EDT) Temp. Heat Index Dew Point Humidity Pressure Visibility Wind Dir Wind Speed Gust Speed Precip Events Conditions
12:00 AM 68.0 °F - 66.2 °F 94% 30.14 in 7.0 mi Calm Calm - N/A   Clear
12:18 AM 68.0 °F - 66.2 °F 94% 30.14 in 7.0 mi Calm Calm - N/A   Clear
12:39 AM 68.0 °F - 64.4 °F 88% 30.14 in 7.0 mi Calm Calm - N/A   Clear
1:00 AM 68.0 °F - 64.4 °F 88% 30.14 in 7.0 mi Calm Calm - N/A   Clear
1:18 AM 68.0 °F - 64.4 °F 88% 30.13 in 5.0 mi Calm Calm - N/A   Clear
1:39 AM 66.2 °F - 64.4 °F 94% 30.13 in 7.0 mi Calm Calm - N/A   Clear
2:00 AM 66.2 °F - 64.4 °F 94% 30.13 in 3.0 mi Calm Calm - N/A   Clear
2:18 AM 66.2 °F - 64.4 °F 94% 30.12 in 7.0 mi Calm Calm - N/A   Clear
2:39 AM 64.4 °F - 64.4 °F 100% 30.12 in 7.0 mi Calm Calm - N/A   Clear
3:00 AM 64.4 °F - 64.4 °F 100% 30.12 in 7.0 mi Calm Calm - N/A   Clear
3:18 AM 64.4 °F - 64.4 °F 100% 30.13 in 7.0 mi Calm Calm - N/A   Clear
3:39 AM 64.4 °F - 62.6 °F 94% 30.13 in 7.0 mi Calm Calm - N/A   Clear
4:00 AM 64.4 °F - 62.6 °F 94% 30.13 in 7.0 mi Calm Calm - N/A   Clear
4:18 AM 64.4 °F - 62.6 °F 94% 30.13 in 7.0 mi Calm Calm - N/A   Clear
4:39 AM 64.4 °F - 64.4 °F 100% 30.12 in 5.0 mi Calm Calm - N/A   Clear
5:00 AM 64.4 °F - 62.6 °F 94% 30.13 in 5.0 mi Calm Calm - N/A   Clear
5:18 AM 64.4 °F - 62.6 °F 94% 30.13 in 7.0 mi Calm Calm - N/A   Clear
5:39 AM 64.4 °F - 62.6 °F 94% 30.13 in 4.0 mi Calm Calm - N/A   Clear
6:00 AM 64.4 °F - 62.6 °F 94% 30.13 in 5.0 mi Calm Calm - N/A   Clear
7:00 AM 68.0 °F - 64.4 °F 88% 30.14 in 7.0 mi Calm Calm - N/A   Clear
7:21 AM 68.0 °F - 66.2 °F 94% 30.14 in 10.0 mi Calm Calm - N/A   Clear
7:39 AM 69.8 °F - 68.0 °F 94% 30.14 in 10.0 mi SW 3.5 mph - N/A   Clear
8:00 AM 73.4 °F - 69.8 °F 88% 30.15 in 7.0 mi WSW 3.5 mph - N/A   Clear
8:21 AM 75.2 °F - 71.6 °F 89% 30.14 in 10.0 mi WSW 4.6 mph - N/A   Clear
8:39 AM 77.0 °F - 71.6 °F 83% 30.14 in 10.0 mi WSW 4.6 mph - N/A   Clear
9:00 AM 78.8 °F - 71.6 °F 78% 30.14 in 10.0 mi SSW 4.6 mph - N/A   Clear
9:21 AM 80.6 °F 84.6 °F 71.6 °F 74% 30.14 in 10.0 mi SW 4.6 mph - N/A   Clear
9:39 AM 80.6 °F 83.9 °F 69.8 °F 70% 30.14 in 10.0 mi Calm Calm - N/A   Clear
10:00 AM 80.6 °F 83.9 °F 69.8 °F 70% 30.15 in 10.0 mi West 5.8 mph - N/A   Clear
10:21 AM 80.6 °F 83.9 °F 69.8 °F 70% 30.15 in 10.0 mi WSW 5.8 mph - N/A   Clear
10:39 AM 82.4 °F 87.2 °F 71.6 °F 70% 30.15 in 10.0 mi WSW 5.8 mph - N/A   Clear
11:00 AM 84.2 °F 88.4 °F 69.8 °F 62% 30.15 in 10.0 mi SW 4.6 mph - N/A   Clear
11:18 AM 86.0 °F 91.8 °F 71.6 °F 62% 30.14 in 10.0 mi SSW 3.5 mph - N/A   Clear
11:39 AM 86.0 °F 91.8 °F 71.6 °F 62% 30.14 in 10.0 mi SW 4.6 mph - N/A   Clear
12:00 PM 87.8 °F 92.6 °F 69.8 °F 55% 30.14 in 10.0 mi West 3.5 mph - N/A   Clear
12:21 PM 86.0 °F 90.4 °F 69.8 °F 58% 30.14 in 10.0 mi SW 5.8 mph - N/A   Clear
12:39 PM 86.0 °F 90.4 °F 69.8 °F 58% 30.13 in 10.0 mi SW 4.6 mph - N/A   Clear
1:00 PM 86.0 °F 90.4 °F 69.8 °F 58% 30.13 in 10.0 mi SW 4.6 mph - N/A   Clear
1:21 PM 87.8 °F 92.6 °F 69.8 °F 55% 30.12 in 10.0 mi SSW 3.5 mph - N/A   Clear
1:39 PM 87.8 °F 92.6 °F 69.8 °F 55% 30.11 in 10.0 mi SW 8.1 mph - N/A   Clear
2:00 PM 87.8 °F 91.4 °F 68.0 °F 52% 30.09 in 10.0 mi SW 4.6 mph - N/A   Clear
2:21 PM 87.8 °F 91.4 °F 68.0 °F 52% 30.08 in 10.0 mi South 6.9 mph - N/A   Clear
2:39 PM 89.6 °F 91.1 °F 64.4 °F 43% 30.08 in 10.0 mi SW 5.8 mph - N/A   Clear
3:00 PM 89.6 °F 91.1 °F 64.4 °F 43% 30.07 in 10.0 mi SSW 6.9 mph - N/A   Clear
3:21 PM 87.8 °F 89.4 °F 64.4 °F 46% 30.06 in 10.0 mi SSW 4.6 mph - N/A   Clear
3:42 PM 87.8 °F 90.4 °F 66.2 °F 49% 30.06 in 10.0 mi SW 5.8 mph - N/A   Clear
4:00 PM 82.4 °F 87.2 °F 71.6 °F 70% 30.07 in 10.0 mi SW 3.5 mph - N/A   Clear
4:21 PM 80.6 °F 84.6 °F 71.6 °F 74% 30.06 in 10.0 mi SW 3.5 mph - N/A   Clear
4:42 PM 78.8 °F - 71.6 °F 78% 30.08 in 10.0 mi West 5.8 mph - N/A   Clear
5:00 PM 78.8 °F - 69.8 °F 74% 30.08 in 10.0 mi West 10.4 mph - N/A   Scattered Clouds
5:21 PM 73.4 °F - 69.8 °F 88% 30.10 in 5.0 mi SSW 10.4 mph - N/A   Overcast
5:42 PM 73.4 °F - 69.8 °F 88% 30.06 in 7.0 mi South 6.9 mph - N/A   Scattered Clouds
6:00 PM 75.2 °F - 68.0 °F 78% 30.04 in 10.0 mi SSW 6.9 mph - N/A   Clear
8:21 PM 71.6 °F - 68.0 °F 88% 30.06 in 10.0 mi Calm Calm - N/A   Clear
9:00 PM 69.8 °F - 66.2 °F 88% 30.05 in 10.0 mi Calm Calm - N/A   Clear
9:21 PM 69.8 °F - 66.2 °F 88% 30.05 in 7.0 mi Calm Calm - N/A   Clear
9:42 PM 68.0 °F - 66.2 °F 94% 30.06 in 7.0 mi Calm Calm - N/A   Clear
10:00 PM 68.0 °F - 66.2 °F 94% 30.07 in 7.0 mi Calm Calm - N/A   Clear
10:21 PM 68.0 °F - 64.4 °F 88% 30.07 in 5.0 mi Calm Calm - N/A   Clear
10:42 PM 68.0 °F - 64.4 °F 88% 30.08 in 7.0 mi Calm Calm - N/A   Clear
11:03 PM 68.0 °F - 64.4 °F 88% 30.08 in 5.0 mi Calm Calm - N/A   Clear
11:18 PM 68.0 °F - 64.4 °F 88% 30.08 in 5.0 mi Calm Calm - N/A   Clear
11:42 PM 66.2 °F - 64.4 °F 94% 30.07 in 5.0 mi Calm Calm - N/A   Clear